STARLINK-31861, 59906

Orbit data source: Space-Track

STARLINK-31861, 59906 is a payload satellite owned by SpaceX/Seattle (US) in LEO that was launched on Tue, 28 May 2024 UTC via an FALCON 9 launch vehicle from the Air Force Eastern Test Range (AFETR). Payload-class satellites include a variety of spacecraft equipped with specific instruments for various scientific and technological missions. These include communications satellites like Starlink; space stations such as the ISS; scientific satellites like the Hubble; Earth observation satellites from companies like Planet Labs, Umbra, and HawkEye 360; GPS; miniature CubeSats for education and research; and military/defense satellites.

Loading next visibility...
Identifier
59906, 2024-100X
Orbit
LEO
Country
Flag of USUS
Related business
Manufacturer
SpaceX/Seattle
Mission
Operational Commercial Communications
Bus & Motor
STARLINK V2M, Unknown motor
Mass
730 kg wet, ~700 kg dry
Launch date (UTC)
2024-05-28 (2 years ago)
Launch vehicle
FALCON 9
Launch site
Air Force Eastern Test Range (AFETR)
Object type
Payload
Rocket body
Debris
Shape & HBR
Box + 2 Pan, 17.7 m
Radar Cross Section
33.884 m², Large (>1 m²)

Expand to show TLE details & history
Last TLE update: 13 hours ago

TLE from 13 hours ago
0 STARLINK-31861
1 59906U 24100X   26036.22220583 -.00000496  00000-0 -84606-5 0  9997
2 59906  43.0063 301.6087 0002965 251.7496 108.3033 15.27607442 96267
Epoch: 2026-02-05T05:19Z
TLE epoch observation values (Epoch: 2026-02-05T05:19:58.583Z)
Latitude
-0.00004°
Longitude
86.23703°
Altitude
483.382 km
Speed
7.625 km/s
True Right ascension
20h 06m 26s
True Declination
0° 00' 00"
Sunlit
Object was in daylight at epoch
Visualization orbit readout
Latitude
Unknown
Longitude
Unknown
Altitude
Unknown
Speed
Unknown
Apparent Right ascension
Unknown
Apparent Declination
Unknown
Sunlit
N/A
Visualization observer readout
Local Sidereal Time
20:17:05
Azimuth
Unknown
Elevation
Unknown
Doppler factor
Unknown
Orbital elements
Apogee altitude
486.946 km
Perigee altitude
482.876 km
Semi-major axis
6,863.048 km
Eccentricity
0.0003
Inclination
43.0063°
RAAN
301.6087°
Arg. of periapsis
251.7496°
True anomaly
108.33555°
Mean anomaly
108.3033°
Eccentric anomaly
108.31943°
Mean motion
3.8174 °/min
Orbital period
94.31 mins
BSTAR
-0.0000084606
Loading maneuver chart data...
Computing Atmospheric mass density...
Loading historical data...
Loading historical data...
Loading historical data...
Loading historical data...
Loading historical data...
Loading historical data...
Loading historical data...

Documentation

Showing up to 5 results
|